| time (UTC) | temp C | wind direction | speed KPH | gust KPH | rain 1hr cm | rain 24hr cm | rain mn cm | humidity % | barometer mb |
| 20260503225334 | 11 | 91 | 0.0 | 0.0 | 0.00 | 0.05 | 0.05 | 88 | 1012.4 |
| 20260503224833 | 11 | 91 | 0.0 | 1.6 | 0.00 | 0.05 | 0.05 | 89 | 1012.3 |
| 20260503224732 | 11 | 91 | 0.0 | 3.2 | 0.00 | 0.05 | 0.05 | 89 | 1012.3 |
| 20260503224234 | 11 | 110 | 0.0 | 1.6 | 0.00 | 0.05 | 0.05 | 90 | 1012.3 |
| 20260503223734 | 11 | 102 | 0.0 | 0.0 | 0.00 | 0.05 | 0.05 | 91 | 1012.3 |
| 20260503223232 | 11 | 102 | 0.0 | 1.6 | 0.00 | 0.05 | 0.05 | 91 | 1012.3 |
| 20260503222732 | 11 | 102 | 0.0 | 1.6 | 0.00 | 0.05 | 0.05 | 92 | 1012.3 |
| 20260503222232 | 11 | 103 | 0.0 | 1.6 | 0.00 | 0.05 | 0.05 | 92 | 1012.2 |
| 20260503221732 | 11 | 99 | 0.0 | 1.6 | 0.00 | 0.05 | 0.05 | 93 | 1012.2 |
| 20260503221233 | 11 | 99 | 0.0 | 1.6 | 0.00 | 0.05 | 0.05 | 93 | 1012.2 |
| 20260503220733 | 11 | 98 | 0.0 | 0.0 | 0.00 | 0.05 | 0.05 | 93 | 1012.3 |
| 20260503215733 | 11 | 98 | 0.0 | 0.0 | 0.00 | 0.08 | 0.05 | 93 | 1012.2 |
| 20260503215232 | 11 | 98 | 0.0 | 0.0 | 0.00 | 0.08 | 0.05 | 93 | 1012.2 |
| 20260503214733 | 11 | 94 | 0.0 | 1.6 | 0.00 | 0.08 | 0.05 | 93 | 1012.1 |
| 20260503213734 | 11 | 106 | 0.0 | 1.6 | 0.00 | 0.08 | 0.05 | 93 | 1012.1 |
| 20260503213233 | 11 | 135 | 0.0 | 0.0 | 0.00 | 0.08 | 0.05 | 93 | 1012.0 |
| 20260503212734 | 11 | 195 | 0.0 | 0.0 | 0.00 | 0.08 | 0.05 | 93 | 1011.9 |
| 20260503212234 | 11 | 288 | 0.0 | 0.0 | 0.00 | 0.08 | 0.05 | 93 | 1011.9 |
| 20260503211734 | 11 | 288 | 0.0 | 0.0 | 0.00 | 0.10 | 0.05 | 93 | 1011.8 |
| 20260503211234 | 11 | 288 | 0.0 | 0.0 | 0.00 | 0.10 | 0.05 | 93 | 1011.8 |
| 20260503210734 | 11 | 287 | 0.0 | 0.0 | 0.00 | 0.10 | 0.05 | 93 | 1011.8 |
| 20260503210233 | 11 | 288 | 0.0 | 1.6 | 0.00 | 0.13 | 0.05 | 93 | 1011.7 |
| 20260503205734 | 11 | 291 | 0.0 | 1.6 | 0.00 | 0.13 | 0.05 | 93 | 1011.6 |
| 20260503205233 | 11 | 291 | 0.0 | 1.6 | 0.00 | 0.13 | 0.05 | 93 | 1011.6 |
| 20260503204733 | 11 | 291 | 0.0 | 1.6 | 0.00 | 0.13 | 0.05 | 93 | 1011.5 |
| 20260503204233 | 11 | 291 | 0.0 | 0.0 | 0.00 | 0.13 | 0.05 | 92 | 1011.5 |
| 20260503203735 | 11 | 291 | 0.0 | 1.6 | 0.00 | 0.13 | 0.05 | 92 | 1011.5 |
| 20260503203235 | 11 | 291 | 0.0 | 1.6 | 0.00 | 0.13 | 0.05 | 92 | 1011.4 |
| 20260503202735 | 11 | 277 | 0.0 | 1.6 | 0.00 | 0.13 | 0.05 | 92 | 1011.3 |
| 20260503202234 | 11 | 283 | 0.0 | 1.6 | 0.00 | 0.13 | 0.05 | 92 | 1011.3 |
| 20260503201733 | 11 | 285 | 0.0 | 1.6 | 0.00 | 0.13 | 0.05 | 92 | 1011.3 |
| 20260503201234 | 11 | 301 | 0.0 | 1.6 | 0.00 | 0.13 | 0.05 | 92 | 1011.2 |
| 20260503200734 | 12 | 283 | 0.0 | 1.6 | 0.00 | 0.13 | 0.05 | 92 | 1011.2 |
| 20260503200234 | 12 | 292 | 1.6 | 4.8 | 0.00 | 0.13 | 0.05 | 92 | 1011.1 |
| 20260503195734 | 12 | 297 | 0.0 | 1.6 | 0.00 | 0.13 | 0.05 | 91 | 1011.1 |
| 20260503195234 | 12 | 287 | 0.0 | 3.2 | 0.00 | 0.13 | 0.05 | 91 | 1010.9 |
| 20260503194734 | 12 | 273 | 0.0 | 1.6 | 0.00 | 0.13 | 0.05 | 91 | 1010.9 |
| 20260503193734 | 12 | 288 | 0.0 | 1.6 | 0.00 | 0.13 | 0.05 | 91 | 1010.9 |
| 20260503193235 | 12 | 307 | 0.0 | 1.6 | 0.00 | 0.13 | 0.05 | 91 | 1010.8 |
| 20260503191735 | 12 | 286 | 0.0 | 1.6 | 0.00 | 0.13 | 0.05 | 91 | 1010.7 |
| 20260503191234 | 12 | 293 | 0.0 | 3.2 | 0.00 | 0.13 | 0.05 | 90 | 1010.6 |
| 20260503190734 | 12 | 285 | 1.6 | 3.2 | 0.00 | 0.13 | 0.05 | 90 | 1010.6 |
| 20260503190234 | 12 | 280 | 1.6 | 3.2 | 0.00 | 0.13 | 0.05 | 90 | 1010.5 |
| 20260503185736 | 12 | 298 | 0.0 | 4.8 | 0.00 | 0.13 | 0.05 | 90 | 1010.5 |
| 20260503185234 | 12 | 294 | 1.6 | 3.2 | 0.00 | 0.13 | 0.05 | 90 | 1010.5 |
| 20260503184735 | 12 | 281 | 1.6 | 3.2 | 0.00 | 0.13 | 0.05 | 90 | 1010.4 |
| 20260503184234 | 12 | 283 | 1.6 | 3.2 | 0.00 | 0.13 | 0.05 | 90 | 1010.4 |
| 20260503183234 | 12 | 295 | 1.6 | 4.8 | 0.00 | 0.13 | 0.05 | 90 | 1010.4 |
| 20260503182735 | 12 | 275 | 0.0 | 3.2 | 0.00 | 0.13 | 0.05 | 90 | 1010.3 |
| 20260503182234 | 12 | 294 | 0.0 | 3.2 | 0.00 | 0.13 | 0.05 | 90 | 1010.4 |
| 20260503181736 | 12 | 304 | 0.0 | 3.2 | 0.00 | 0.13 | 0.05 | 90 | 1010.3 |
| 20260503181235 | 12 | 287 | 0.0 | 3.2 | 0.00 | 0.13 | 0.05 | 90 | 1010.3 |
| 20260503180735 | 12 | 283 | 0.0 | 3.2 | 0.00 | 0.13 | 0.05 | 90 | 1010.3 |
| 20260503175736 | 12 | 301 | 1.6 | 4.8 | 0.00 | 0.13 | 0.05 | 88 | 1010.3 |
| 20260503175235 | 12 | 286 | 0.0 | 1.6 | 0.00 | 0.13 | 0.05 | 87 | 1010.3 |
| 20260503174237 | 12 | 162 | 0.0 | 0.0 | 0.00 | 0.13 | 0.05 | 87 | 1010.3 |
| 20260503173735 | 12 | 163 | 0.0 | 0.0 | 0.00 | 0.13 | 0.05 | 87 | 1010.3 |
| 20260503172735 | 13 | 132 | 0.0 | 1.6 | 0.00 | 0.13 | 0.05 | 87 | 1010.2 |
| 20260503172235 | 13 | 134 | 0.0 | 1.6 | 0.00 | 0.13 | 0.05 | 86 | 1010.2 |
| 20260503171735 | 13 | 142 | 0.0 | 4.8 | 0.00 | 0.13 | 0.05 | 86 | 1010.1 |
| 20260503171235 | 13 | 142 | 0.0 | 1.6 | 0.00 | 0.13 | 0.05 | 86 | 1010.1 |
| 20260503170735 | 13 | 143 | 1.6 | 4.8 | 0.00 | 0.13 | 0.05 | 85 | 1010.0 |
| 20260503170236 | 13 | 132 | 0.0 | 4.8 | 0.00 | 0.13 | 0.05 | 86 | 1010.0 |
| 20260503150736 | 14 | 102 | 3.2 | 12.9 | 0.00 | 0.15 | 0.05 | 81 | 1010.0 |
| 20260503150236 | 14 | 105 | 9.7 | 12.9 | 0.00 | 0.15 | 0.05 | 80 | 1009.9 |
| 20260503140238 | 13 | 99 | 4.8 | 11.3 | 0.00 | 0.18 | 0.05 | 82 | 1010.1 |
| 20260503131237 | 13 | 122 | 1.6 | 8.0 | 0.00 | 0.23 | 0.05 | 85 | 1010.4 |
| 20260503130737 | 13 | 104 | 1.6 | 4.8 | 0.00 | 0.23 | 0.05 | 87 | 1010.4 |
| 20260503130237 | 13 | 95 | 1.6 | 4.8 | 0.00 | 0.23 | 0.05 | 86 | 1010.4 |
| 20260503110738 | 12 | 100 | 0.0 | 1.6 | 0.00 | 0.23 | 0.05 | 92 | 1010.4 |
| 20260503110240 | 11 | 122 | 0.0 | 1.6 | 0.00 | 0.23 | 0.05 | 92 | 1010.4 |
| 20260503100238 | 11 | 97 | 0.0 | 1.6 | 0.00 | 0.23 | 0.05 | 95 | 1010.2 |
| 20260503090239 | 10 | 97 | 3.2 | 9.7 | 0.00 | 0.23 | 0.05 | 95 | 1010.2 |
| 20260503081240 | 11 | 107 | 0.0 | 4.8 | 0.05 | 0.23 | 0.05 | 96 | 1009.9 |
| 20260503080740 | 11 | 130 | 0.0 | 1.6 | 0.05 | 0.23 | 0.05 | 96 | 1009.9 |
| 20260503080241 | 11 | 110 | 0.0 | 1.6 | 0.05 | 0.23 | 0.05 | 96 | 1009.9 |
| 20260503072239 | 11 | 97 | 0.0 | 8.0 | 0.00 | 0.20 | 0.00 | 96 | 1009.7 |
| 20260503070739 | 11 | 107 | 1.6 | 4.8 | 0.00 | 0.20 | 0.00 | 97 | 1009.6 |
| 20260503070240 | 11 | 102 | 1.6 | 4.8 | 0.00 | 0.20 | 0.00 | 97 | 1009.5 |
| 20260503060240 | 10 | 101 | 0.0 | 1.6 | 0.00 | 0.20 | 0.00 | 97 | 1009.3 |
| 20260503054742 | 10 | 108 | 1.6 | 4.8 | 0.00 | 0.20 | 0.00 | 97 | 1009.2 |
| 20260503054242 | 10 | 101 | 1.6 | 4.8 | 0.00 | 0.20 | 0.00 | 96 | 1009.1 |
| 20260503053741 | 10 | 106 | 1.6 | 4.8 | 0.00 | 0.20 | 0.00 | 96 | 1009.1 |
| 20260503053241 | 10 | 103 | 0.0 | 1.6 | 0.00 | 0.20 | 0.00 | 96 | 1009.1 |
| 20260503052742 | 10 | 105 | 1.6 | 3.2 | 0.00 | 0.20 | 0.00 | 96 | 1009.1 |
| 20260503052241 | 10 | 103 | 3.2 | 8.0 | 0.00 | 0.20 | 0.00 | 96 | 1009.1 |
| 20260503051741 | 10 | 109 | 0.0 | 1.6 | 0.00 | 0.20 | 0.00 | 96 | 1009.1 |
| 20260503051242 | 10 | 122 | 0.0 | 3.2 | 0.00 | 0.20 | 0.00 | 96 | 1009.1 |
| 20260503050741 | 10 | 96 | 0.0 | 4.8 | 0.00 | 0.20 | 0.00 | 96 | 1009.1 |
| 20260503050242 | 10 | 123 | 0.0 | 3.2 | 0.00 | 0.20 | 0.00 | 96 | 1009.0 |
| 20260503045742 | 10 | 105 | 0.0 | 3.2 | 0.00 | 0.20 | 0.00 | 96 | 1009.1 |
| 20260503045242 | 10 | 123 | 1.6 | 3.2 | 0.00 | 0.20 | 0.00 | 96 | 1009.1 |
| 20260503044742 | 10 | 108 | 0.0 | 3.2 | 0.00 | 0.20 | 0.00 | 96 | 1009.1 |
| 20260503044242 | 10 | 104 | 0.0 | 3.2 | 0.00 | 0.20 | 0.00 | 96 | 1009.1 |
| 20260503043741 | 10 | 123 | 1.6 | 8.0 | 0.00 | 0.20 | 0.00 | 96 | 1009.1 |
| 20260503042741 | 10 | 97 | 1.6 | 3.2 | 0.00 | 0.20 | 0.00 | 96 | 1009.1 |
| 20260503042242 | 11 | 112 | 1.6 | 4.8 | 0.00 | 0.20 | 0.00 | 96 | 1009.2 |
| 20260503041743 | 10 | 98 | 1.6 | 4.8 | 0.00 | 0.20 | 0.00 | 96 | 1009.2 |
| 20260503040742 | 11 | 105 | 1.6 | 4.8 | 0.00 | 0.20 | 0.00 | 96 | 1009.2 |
| 20260503040241 | 11 | 112 | 1.6 | 9.7 | 0.00 | 0.20 | 0.00 | 96 | 1009.2 |
| 20260503035743 | 11 | 98 | 3.2 | 8.0 | 0.00 | 0.20 | 0.00 | 96 | 1009.2 |
| 20260503035241 | 11 | 94 | 3.2 | 9.7 | 0.00 | 0.20 | 0.00 | 96 | 1009.2 |
| 20260503034743 | 11 | 80 | 1.6 | 4.8 | 0.00 | 0.20 | 0.00 | 96 | 1009.2 |
| 20260503034241 | 11 | 95 | 3.2 | 8.0 | 0.00 | 0.20 | 0.00 | 96 | 1009.3 |
| 20260503033743 | 11 | 102 | 1.6 | 4.8 | 0.00 | 0.20 | 0.00 | 96 | 1009.2 |
| 20260503033243 | 11 | 106 | 0.0 | 1.6 | 0.00 | 0.20 | 0.00 | 96 | 1009.2 |
| 20260503032742 | 11 | 108 | 0.0 | 1.6 | 0.00 | 0.20 | 0.00 | 96 | 1009.2 |
| 20260503032241 | 11 | 105 | 0.0 | 1.6 | 0.00 | 0.20 | 0.00 | 96 | 1009.2 |
| 20260503031743 | 11 | 113 | 0.0 | 1.6 | 0.00 | 0.20 | 0.00 | 96 | 1009.2 |
| 20260503031242 | 11 | 111 | 0.0 | 1.6 | 0.00 | 0.20 | 0.00 | 96 | 1009.2 |
| 20260503030242 | 11 | 106 | 0.0 | 1.6 | 0.00 | 0.20 | 0.00 | 96 | 1009.2 |
| 20260503025742 | 11 | 100 | 0.0 | 0.0 | 0.00 | 0.20 | 0.00 | 96 | 1009.2 |
| 20260503025243 | 11 | 108 | 0.0 | 1.6 | 0.00 | 0.20 | 0.00 | 96 | 1009.2 |
| 20260503024742 | 11 | 108 | 0.0 | 1.6 | 0.00 | 0.20 | 0.00 | 96 | 1009.2 |
| 20260503024243 | 11 | 113 | 0.0 | 3.2 | 0.00 | 0.20 | 0.00 | 96 | 1009.2 |
| 20260503023743 | 11 | 101 | 0.0 | 1.6 | 0.00 | 0.20 | 0.00 | 96 | 1009.2 |
| 20260503023243 | 11 | 92 | 0.0 | 1.6 | 0.00 | 0.20 | 0.00 | 96 | 1009.3 |
| 20260503022742 | 11 | 100 | 0.0 | 3.2 | 0.00 | 0.20 | 0.00 | 96 | 1009.3 |
| 20260503022243 | 11 | 111 | 1.6 | 4.8 | 0.00 | 0.20 | 0.00 | 96 | 1009.3 |
| 20260503021743 | 11 | 100 | 0.0 | 0.0 | 0.00 | 0.20 | 0.00 | 96 | 1009.4 |
| 20260503021242 | 11 | 105 | 0.0 | 1.6 | 0.00 | 0.20 | 0.00 | 96 | 1009.4 |
| 20260503020742 | 11 | 107 | 0.0 | 1.6 | 0.00 | 0.20 | 0.00 | 96 | 1009.5 |
| 20260503015744 | 11 | 63 | 0.0 | 1.6 | 0.00 | 0.20 | 0.00 | 96 | 1009.5 |
| 20260503015242 | 11 | 99 | 0.0 | 1.6 | 0.00 | 0.20 | 0.00 | 96 | 1009.6 |
| 20260503014243 | 11 | 103 | 0.0 | 1.6 | 0.00 | 0.20 | 0.00 | 96 | 1009.6 |
| 20260503013744 | 11 | 107 | 0.0 | 1.6 | 0.00 | 0.20 | 0.00 | 96 | 1009.6 |
| 20260503013244 | 11 | 105 | 0.0 | 1.6 | 0.00 | 0.20 | 0.00 | 96 | 1009.7 |
| 20260503012242 | 11 | 111 | 0.0 | 1.6 | 0.00 | 0.20 | 0.00 | 96 | 1009.7 |
| 20260503011744 | 11 | 107 | 0.0 | 1.6 | 0.00 | 0.20 | 0.00 | 96 | 1009.7 |
| 20260503011243 | 11 | 108 | 0.0 | 0.0 | 0.00 | 0.20 | 0.00 | 96 | 1009.8 |
| 20260503010744 | 11 | 110 | 0.0 | 1.6 | 0.00 | 0.20 | 0.00 | 96 | 1009.9 |
| 20260503010243 | 11 | 106 | 0.0 | 0.0 | 0.00 | 0.20 | 0.00 | 96 | 1009.9 |
| 20260503005244 | 11 | 114 | 0.0 | 1.6 | 0.00 | 0.20 | 0.00 | 96 | 1009.9 |
| 20260503004744 | 11 | 116 | 0.0 | 0.0 | 0.00 | 0.20 | 0.00 | 96 | 1010.0 |
| 20260503004244 | 11 | 116 | 0.0 | 0.0 | 0.00 | 0.20 | 0.00 | 96 | 1010.0 |
| 20260503003743 | 11 | 117 | 0.0 | 1.6 | 0.00 | 0.20 | 0.00 | 96 | 1010.0 |
| 20260503003243 | 11 | 117 | 0.0 | 0.0 | 0.00 | 0.20 | 0.00 | 96 | 1010.0 |
| 20260503002744 | 11 | 117 | 0.0 | 1.6 | 0.00 | 0.20 | 0.00 | 96 | 1010.0 |
| 20260503002243 | 11 | 106 | 0.0 | 1.6 | 0.00 | 0.20 | 0.00 | 96 | 1010.0 |
| 20260503001243 | 11 | 107 | 0.0 | 1.6 | 0.00 | 0.20 | 0.00 | 96 | 1010.2 |
| 20260503000245 | 11 | 100 | 0.0 | 0.0 | 0.00 | 0.20 | 0.00 | 96 | 1010.2 |
| 20260502235743 | 11 | 103 | 0.0 | 1.6 | 0.00 | 0.20 | 0.00 | 96 | 1010.1 |
| 20260502235243 | 11 | 119 | 0.0 | 1.6 | 0.00 | 0.20 | 0.00 | 96 | 1010.2 |
| 20260502234745 | 11 | 107 | 0.0 | 1.6 | 0.00 | 0.20 | 0.00 | 96 | 1010.2 |
| 20260502234245 | 11 | 118 | 0.0 | 1.6 | 0.00 | 0.20 | 0.00 | 96 | 1010.2 |
| 20260502233743 | 11 | 108 | 0.0 | 1.6 | 0.00 | 0.20 | 0.00 | 96 | 1010.2 |
| 20260502232744 | 11 | 101 | 1.6 | 4.8 | 0.00 | 0.20 | 0.00 | 96 | 1010.2 |
| 20260502231244 | 11 | 107 | 1.6 | 4.8 | 0.00 | 0.20 | 0.00 | 96 | 1010.3 |
| 20260502230801 | 11 | 128 | 0.0 | 3.2 | 0.00 | 0.20 | 0.00 | 96 | 1010.3 |
| 20260502230246 | 11 | 141 | 1.6 | 3.2 | 0.03 | 0.20 | 0.00 | 96 | 1010.3 |
| 20260502225744 | 11 | 122 | 3.2 | 8.0 | 0.05 | 0.20 | 0.20 | 96 | 1010.3 |